TimeCEST,TemperatureF,Dew PointF,Humidity,Sea Level PressureIn,VisibilityMPH,Wind Direction,Wind SpeedMPH,Gust SpeedMPH,PrecipitationIn,Events,Conditions,WindDirDegrees,DateUTC
5:30 AM,66.2,59.0,78,30.09,-9999.0,SSW,3.5,-,N/A,,Clear,200,2012-10-07 03:30:00
6:00 AM,66.2,59.0,78,30.09,-9999.0,Variable,2.3,-,N/A,,Clear,0,2012-10-07 04:00:00
6:30 AM,66.2,59.0,78,30.09,-9999.0,Variable,1.2,-,N/A,,Clear,0,2012-10-07 04:30:00
7:00 AM,66.2,59.0,78,30.09,-9999.0,Variable,1.2,-,N/A,,Clear,0,2012-10-07 05:00:00
7:30 AM,66.2,59.0,78,30.09,6.2,Variable,1.2,-,N/A,,Overcast,0,2012-10-07 05:30:00
8:00 AM,66.2,59.0,78,30.09,6.2,SW,3.5,-,N/A,,Mostly Cloudy,220,2012-10-07 06:00:00
8:30 AM,64.4,60.8,88,30.09,6.2,Calm,Calm,-,N/A,,Mostly Cloudy,0,2012-10-07 06:30:00
9:00 AM,64.4,60.8,88,30.09,6.2,Variable,2.3,-,N/A,,Mostly Cloudy,0,2012-10-07 07:00:00
9:30 AM,66.2,60.8,83,30.12,6.2,Variable,1.2,-,N/A,,Mostly Cloudy,0,2012-10-07 07:30:00
10:00 AM,68.0,60.8,78,30.12,6.2,Variable,1.2,-,N/A,,Mostly Cloudy,0,2012-10-07 08:00:00
10:30 AM,68.0,60.8,78,30.12,6.2,Variable,2.3,-,N/A,,Mostly Cloudy,0,2012-10-07 08:30:00
11:00 AM,69.8,60.8,73,30.15,6.2,Calm,Calm,-,N/A,,Overcast,0,2012-10-07 09:00:00
11:30 AM,69.8,60.8,73,30.15,6.2,Calm,Calm,-,N/A,,Mostly Cloudy,0,2012-10-07 09:30:00
12:00 PM,71.6,60.8,69,30.15,6.2,Calm,Calm,-,N/A,,Mostly Cloudy,0,2012-10-07 10:00:00
12:30 PM,71.6,62.6,73,30.18,6.2,Calm,Calm,-,N/A,,Mostly Cloudy,0,2012-10-07 10:30:00
1:00 PM,71.6,60.8,69,30.18,6.2,NE,3.5,-,N/A,,Mostly Cloudy,40,2012-10-07 11:00:00
1:30 PM,73.4,59.0,61,30.18,6.2,Variable,1.2,-,N/A,,Mostly Cloudy,0,2012-10-07 11:30:00
2:00 PM,73.4,60.8,65,30.18,6.2,Calm,Calm,-,N/A,,Overcast,0,2012-10-07 12:00:00
2:30 PM,73.4,57.2,57,30.18,6.2,Calm,Calm,-,N/A,,Overcast,0,2012-10-07 12:30:00
3:00 PM,73.4,59.0,61,30.18,6.2,Calm,Calm,-,N/A,,Overcast,0,2012-10-07 13:00:00
3:30 PM,75.2,59.0,57,30.18,6.2,Calm,Calm,-,N/A,,Overcast,0,2012-10-07 13:30:00
4:00 PM,73.4,60.8,65,30.18,6.2,Variable,2.3,-,N/A,,Overcast,0,2012-10-07 14:00:00
4:30 PM,73.4,60.8,65,30.18,6.2,Variable,1.2,-,N/A,,Overcast,0,2012-10-07 14:30:00
5:00 PM,75.2,62.6,65,30.18,6.2,Calm,Calm,-,N/A,,Overcast,0,2012-10-07 15:00:00
5:30 PM,75.2,64.4,69,30.15,6.2,Variable,1.2,-,N/A,,Mostly Cloudy,0,2012-10-07 15:30:00
6:00 PM,75.2,64.4,69,30.15,6.2,Variable,2.3,-,N/A,,Mostly Cloudy,0,2012-10-07 16:00:00
6:30 PM,73.4,64.4,73,30.18,6.2,Variable,1.2,-,N/A,,Mostly Cloudy,0,2012-10-07 16:30:00
7:00 PM,73.4,64.4,73,30.15,6.2,Variable,1.2,-,N/A,,Mostly Cloudy,0,2012-10-07 17:00:00
7:30 PM,73.4,64.4,73,30.15,6.2,Variable,1.2,-,N/A,,Mostly Cloudy,0,2012-10-07 17:30:00
8:00 PM,69.8,64.4,83,30.18,6.2,North,3.5,-,N/A,,Partly Cloudy,10,2012-10-07 18:00:00
8:30 PM,68.0,64.4,88,30.18,6.2,NNE,3.5,-,N/A,,Partly Cloudy,30,2012-10-07 18:30:00
9:00 PM,68.0,64.4,88,30.18,6.2,Variable,1.2,-,N/A,,Partly Cloudy,0,2012-10-07 19:00:00
9:30 PM,68.0,64.4,88,30.18,6.2,Calm,Calm,-,N/A,,Partly Cloudy,0,2012-10-07 19:30:00